Location: Napier
(39.4830°S, 176.9170°E)
Time: 16:06:14
(UTC+13:00)

CENTAUR R/B - Pass Details

Date: 24 January 2019
Orbit: 791 x 1397 km, 63.5° (Epoch: 16 February)

Event Time Altitude Azimuth Distance (km) Brightness Sun altitude
Exits shadow 23:28:59 37° 75° (ENE) 1,840 3.5 -25.4°
Drops below altitude 10° 23:35:05 10° 130° (SE) 3,045 5.2 -26.0°
Sets 23:37:49 0° 138° (SE) 3,919 5.9 -26.2°
